Year,Month,Day,Hour,Minute,Value (Times are PST for temperature in C)
2007,07,12,00,00,21.70
2007,07,12,00,01,21.70
2007,07,12,00,02,21.70
2007,07,12,00,03,21.70
2007,07,12,00,04,21.70
2007,07,12,00,05,21.70
2007,07,12,00,06,21.60
2007,07,12,00,07,21.60
2007,07,12,00,08,21.60
2007,07,12,00,09,21.60
2007,07,12,00,10,21.50
2007,07,12,00,11,21.40
2007,07,12,00,12,21.40
2007,07,12,00,13,21.40
2007,07,12,00,14,21.40
2007,07,12,00,15,21.30
2007,07,12,00,16,21.30
2007,07,12,00,17,21.30
2007,07,12,00,18,21.30
2007,07,12,00,19,21.30
2007,07,12,00,20,21.20
2007,07,12,00,21,21.20
2007,07,12,00,22,21.20
2007,07,12,00,23,21.20
2007,07,12,00,24,21.20
2007,07,12,00,25,21.20
2007,07,12,00,26,21.20
2007,07,12,00,27,21.10
2007,07,12,00,28,21.10
2007,07,12,00,29,21.20
2007,07,12,00,30,21.20
2007,07,12,00,31,21.20
2007,07,12,00,32,21.20
2007,07,12,00,33,21.20
2007,07,12,00,34,21.10
2007,07,12,00,35,21.10
2007,07,12,00,36,21.10
2007,07,12,00,37,21.20
2007,07,12,00,38,21.20
2007,07,12,00,39,21.20
2007,07,12,00,40,21.20
2007,07,12,00,41,21.20
2007,07,12,00,42,21.10
2007,07,12,00,43,21.10
2007,07,12,00,44,21.10
2007,07,12,00,45,21.10
2007,07,12,00,46,21.10
2007,07,12,00,47,21.10
2007,07,12,00,48,21.10
2007,07,12,00,49,21.10
2007,07,12,00,50,21.10
2007,07,12,00,51,21.00
2007,07,12,00,52,21.00
2007,07,12,00,53,21.00
2007,07,12,00,54,21.00
2007,07,12,00,55,21.00
2007,07,12,00,56,21.00
2007,07,12,00,57,21.00
2007,07,12,00,58,21.00
2007,07,12,00,59,21.00
2007,07,12,01,00,20.90
2007,07,12,01,01,20.90
2007,07,12,01,02,20.90
2007,07,12,01,03,20.90
2007,07,12,01,04,20.90
2007,07,12,01,05,20.90
2007,07,12,01,06,20.90
2007,07,12,01,07,20.90
2007,07,12,01,08,20.90
2007,07,12,01,09,20.80
2007,07,12,01,10,20.80
2007,07,12,01,11,20.80
2007,07,12,01,12,20.80
2007,07,12,01,13,20.70
2007,07,12,01,14,20.70
2007,07,12,01,15,20.60
2007,07,12,01,16,20.50
2007,07,12,01,17,20.50
2007,07,12,01,18,20.40
2007,07,12,01,19,20.40
2007,07,12,01,20,20.40
2007,07,12,01,21,20.30
2007,07,12,01,22,20.30
2007,07,12,01,23,20.30
2007,07,12,01,24,20.30
2007,07,12,01,25,20.30
2007,07,12,01,26,20.40
2007,07,12,01,27,20.40
2007,07,12,01,28,20.40
2007,07,12,01,29,20.40
2007,07,12,01,30,20.40
2007,07,12,01,31,20.40
2007,07,12,01,32,20.40
2007,07,12,01,33,20.40
2007,07,12,01,34,20.40
2007,07,12,01,35,20.40
2007,07,12,01,36,20.40
2007,07,12,01,37,20.40
2007,07,12,01,38,20.40
2007,07,12,01,39,20.40
2007,07,12,01,40,20.40
2007,07,12,01,41,20.30
2007,07,12,01,42,20.30
2007,07,12,01,43,20.30
2007,07,12,01,44,20.30
2007,07,12,01,45,20.30
2007,07,12,01,46,20.20
2007,07,12,01,47,20.10
2007,07,12,01,48,20.00
2007,07,12,01,49,19.90
2007,07,12,01,50,19.80
2007,07,12,01,51,19.70
2007,07,12,01,52,19.70
2007,07,12,01,53,19.60
2007,07,12,01,54,19.60
2007,07,12,01,55,19.50
2007,07,12,01,56,19.50
2007,07,12,01,57,19.50
2007,07,12,01,58,19.50
2007,07,12,01,59,19.50
2007,07,12,02,00,19.50
2007,07,12,02,01,19.50
2007,07,12,02,02,19.50
2007,07,12,02,03,19.50
2007,07,12,02,04,19.50
2007,07,12,02,05,19.50
2007,07,12,02,06,19.50
2007,07,12,02,07,19.50
2007,07,12,02,08,19.40
2007,07,12,02,09,19.40
2007,07,12,02,10,19.40
2007,07,12,02,11,19.30
2007,07,12,02,12,19.30
2007,07,12,02,13,19.20
2007,07,12,02,14,19.10
2007,07,12,02,15,19.00
2007,07,12,02,16,19.00
2007,07,12,02,17,18.90
2007,07,12,02,18,18.90
2007,07,12,02,19,18.90
2007,07,12,02,20,18.80
2007,07,12,02,21,18.80
2007,07,12,02,22,18.80
2007,07,12,02,23,18.80
2007,07,12,02,24,18.80
2007,07,12,02,25,18.70
2007,07,12,02,26,18.70
2007,07,12,02,27,18.70
2007,07,12,02,28,18.70
2007,07,12,02,29,18.70
2007,07,12,02,30,18.70
2007,07,12,02,31,18.60
2007,07,12,02,32,18.60
2007,07,12,02,33,18.60
2007,07,12,02,34,18.60
2007,07,12,02,35,18.60
2007,07,12,02,36,18.60
2007,07,12,02,37,18.60
2007,07,12,02,38,18.60
2007,07,12,02,39,18.60
2007,07,12,02,40,18.60
2007,07,12,02,41,18.60
2007,07,12,02,42,18.60
2007,07,12,02,43,18.70
2007,07,12,02,44,18.70
2007,07,12,02,45,18.70
2007,07,12,02,46,18.70
2007,07,12,02,47,18.70
2007,07,12,02,48,18.70
2007,07,12,02,49,18.70
2007,07,12,02,50,18.70
2007,07,12,02,51,18.60
2007,07,12,02,52,18.60
2007,07,12,02,53,18.60
2007,07,12,02,54,18.60
2007,07,12,02,55,18.60
2007,07,12,02,56,18.60
2007,07,12,02,57,18.60
2007,07,12,02,58,18.60
2007,07,12,02,59,18.60
2007,07,12,03,00,18.60
2007,07,12,03,01,18.60
2007,07,12,03,02,18.60
2007,07,12,03,03,18.60
2007,07,12,03,04,18.60
2007,07,12,03,05,18.60
2007,07,12,03,06,18.60
2007,07,12,03,07,18.50
2007,07,12,03,08,18.50
2007,07,12,03,09,18.50
2007,07,12,03,10,18.50
2007,07,12,03,11,18.50
2007,07,12,03,12,18.40
2007,07,12,03,13,18.40
2007,07,12,03,14,18.40
2007,07,12,03,15,18.40
2007,07,12,03,16,18.30
2007,07,12,03,17,18.30
2007,07,12,03,18,18.30
2007,07,12,03,19,18.30
2007,07,12,03,20,18.30
2007,07,12,03,21,18.30
2007,07,12,03,22,18.30
2007,07,12,03,23,18.30
2007,07,12,03,24,18.20
2007,07,12,03,25,18.20
2007,07,12,03,26,18.20
2007,07,12,03,27,18.20
2007,07,12,03,28,18.20
2007,07,12,03,29,18.20
2007,07,12,03,30,18.20
2007,07,12,03,31,18.20
2007,07,12,03,32,18.20
2007,07,12,03,33,18.20
2007,07,12,03,34,18.20
2007,07,12,03,35,18.20
2007,07,12,03,36,18.20
2007,07,12,03,37,18.20
2007,07,12,03,38,18.20
2007,07,12,03,39,18.20
2007,07,12,03,40,18.20
2007,07,12,03,41,18.20
2007,07,12,03,42,18.20
2007,07,12,03,43,18.20
2007,07,12,03,44,18.20
2007,07,12,03,45,18.20
2007,07,12,03,46,18.20
2007,07,12,03,47,18.20
2007,07,12,03,48,18.20
2007,07,12,03,49,18.10
2007,07,12,03,50,18.10
2007,07,12,03,51,18.10
2007,07,12,03,52,18.10
2007,07,12,03,53,18.10
2007,07,12,03,54,18.10
2007,07,12,03,55,18.10
2007,07,12,03,56,18.10
2007,07,12,03,57,18.00
2007,07,12,03,58,18.00
2007,07,12,03,59,18.00
2007,07,12,04,00,17.90
2007,07,12,04,01,17.90
2007,07,12,04,02,17.90
2007,07,12,04,03,17.90
2007,07,12,04,04,17.90
2007,07,12,04,05,17.90
2007,07,12,04,06,17.80
2007,07,12,04,07,17.80
2007,07,12,04,08,17.80
2007,07,12,04,09,17.80
2007,07,12,04,10,17.80
2007,07,12,04,11,17.70
2007,07,12,04,12,17.70
2007,07,12,04,13,17.70
2007,07,12,04,14,17.70
2007,07,12,04,15,17.60
2007,07,12,04,16,17.60
2007,07,12,04,17,17.50
2007,07,12,04,18,17.50
2007,07,12,04,19,17.40
2007,07,12,04,20,17.40
2007,07,12,04,21,17.30
2007,07,12,04,22,17.30
2007,07,12,04,23,17.20
2007,07,12,04,24,17.20
2007,07,12,04,25,17.10
2007,07,12,04,26,17.10
2007,07,12,04,27,17.00
2007,07,12,04,28,17.00
2007,07,12,04,29,16.90
2007,07,12,04,30,16.90
2007,07,12,04,31,16.80
2007,07,12,04,32,16.80
2007,07,12,04,33,16.70
2007,07,12,04,34,16.60
2007,07,12,04,35,16.60
2007,07,12,04,36,16.50
2007,07,12,04,37,16.50
2007,07,12,04,38,16.50
2007,07,12,04,39,16.40
2007,07,12,04,40,16.40
2007,07,12,04,41,16.30
2007,07,12,04,42,16.30
2007,07,12,04,43,16.30
2007,07,12,04,44,16.30
2007,07,12,04,45,16.20
2007,07,12,04,46,16.20
2007,07,12,04,47,16.20
2007,07,12,04,48,16.20
2007,07,12,04,49,16.20
2007,07,12,04,50,16.20
2007,07,12,04,51,16.20
2007,07,12,04,52,16.20
2007,07,12,04,53,16.20
2007,07,12,04,54,16.20
2007,07,12,04,55,16.20
2007,07,12,04,56,16.20
2007,07,12,04,57,16.20
2007,07,12,04,58,16.20
2007,07,12,04,59,16.20
2007,07,12,05,00,16.20
2007,07,12,05,01,16.20
2007,07,12,05,02,16.20
2007,07,12,05,03,16.20
2007,07,12,05,04,16.10
2007,07,12,05,05,16.10
2007,07,12,05,06,16.10
2007,07,12,05,07,16.10
2007,07,12,05,08,16.00
2007,07,12,05,09,16.00
2007,07,12,05,10,16.00
2007,07,12,05,11,15.90
2007,07,12,05,12,15.90
2007,07,12,05,13,15.90
2007,07,12,05,14,15.90
2007,07,12,05,15,15.90
2007,07,12,05,16,15.80
2007,07,12,05,17,15.80
2007,07,12,05,18,15.80
2007,07,12,05,19,15.80
2007,07,12,05,20,15.80
2007,07,12,05,21,15.70
2007,07,12,05,22,15.70
2007,07,12,05,23,15.70
2007,07,12,05,24,15.70
2007,07,12,05,25,15.60
2007,07,12,05,26,15.60
2007,07,12,05,27,15.60
2007,07,12,05,28,15.60
2007,07,12,05,29,15.50
2007,07,12,05,30,15.50
2007,07,12,05,31,15.50
2007,07,12,05,32,15.40
2007,07,12,05,33,15.40
2007,07,12,05,34,15.30
2007,07,12,05,35,15.30
2007,07,12,05,36,15.20
2007,07,12,05,37,15.00
2007,07,12,05,38,15.00
2007,07,12,05,39,15.00
2007,07,12,05,40,14.90
2007,07,12,05,41,14.80
2007,07,12,05,42,14.70
2007,07,12,05,43,14.60
2007,07,12,05,44,14.60
2007,07,12,05,45,14.50
2007,07,12,05,46,14.40
2007,07,12,05,47,14.40
2007,07,12,05,48,14.30
2007,07,12,05,49,14.30
2007,07,12,05,50,14.30
2007,07,12,05,51,14.30
2007,07,12,05,52,14.30
2007,07,12,05,53,14.20
2007,07,12,05,54,14.20
2007,07,12,05,55,14.20
2007,07,12,05,56,14.20
2007,07,12,05,57,14.20
2007,07,12,05,58,14.20
2007,07,12,05,59,14.20
2007,07,12,06,00,14.20
2007,07,12,06,01,14.20
2007,07,12,06,02,14.10
2007,07,12,06,03,14.20
2007,07,12,06,04,14.20
2007,07,12,06,05,14.10
2007,07,12,06,06,14.20
2007,07,12,06,07,14.20
2007,07,12,06,08,14.20
2007,07,12,06,09,14.20
2007,07,12,06,10,14.20
2007,07,12,06,11,14.20
2007,07,12,06,12,14.20
2007,07,12,06,13,14.20
2007,07,12,06,14,14.20
2007,07,12,06,15,14.20
2007,07,12,06,16,14.20
2007,07,12,06,17,14.10
2007,07,12,06,18,14.10
2007,07,12,06,19,14.10
2007,07,12,06,20,14.10
2007,07,12,06,21,14.10
2007,07,12,06,22,14.10
2007,07,12,06,23,14.10
2007,07,12,06,24,14.10
2007,07,12,06,25,14.10
2007,07,12,06,26,14.10
2007,07,12,06,27,14.00
2007,07,12,06,28,14.00
2007,07,12,06,29,14.00
2007,07,12,06,30,14.00
2007,07,12,06,31,14.00
2007,07,12,06,32,14.00
2007,07,12,06,33,14.00
2007,07,12,06,34,14.00
2007,07,12,06,35,14.00
2007,07,12,06,36,14.00
2007,07,12,06,37,14.00
2007,07,12,06,38,14.00
2007,07,12,06,39,14.00
2007,07,12,06,40,14.00
2007,07,12,06,41,14.00
2007,07,12,06,42,14.10
2007,07,12,06,43,14.10
2007,07,12,06,44,14.10
2007,07,12,06,45,14.10
2007,07,12,06,46,14.10
2007,07,12,06,47,14.10
2007,07,12,06,48,14.10
2007,07,12,06,49,14.10
2007,07,12,06,50,14.10
2007,07,12,06,51,14.20
2007,07,12,06,52,14.20
2007,07,12,06,53,14.20
2007,07,12,06,54,14.20
2007,07,12,06,55,14.20
2007,07,12,06,56,14.20
2007,07,12,06,57,14.20
2007,07,12,06,58,14.20
2007,07,12,06,59,14.20
2007,07,12,07,00,14.30
2007,07,12,07,01,14.20
2007,07,12,07,02,14.20
2007,07,12,07,03,14.20
2007,07,12,07,04,14.20
2007,07,12,07,05,14.20
2007,07,12,07,06,14.20
2007,07,12,07,07,14.30
2007,07,12,07,08,14.30
2007,07,12,07,09,14.30
2007,07,12,07,10,14.30
2007,07,12,07,11,14.40
2007,07,12,07,12,14.40
2007,07,12,07,13,14.40
2007,07,12,07,14,14.50
2007,07,12,07,15,14.50
2007,07,12,07,16,14.50
2007,07,12,07,17,14.50
2007,07,12,07,18,14.50
2007,07,12,07,19,14.50
2007,07,12,07,20,14.60
2007,07,12,07,21,14.60
2007,07,12,07,22,14.60
2007,07,12,07,23,14.60
2007,07,12,07,24,14.60
2007,07,12,07,25,14.60
2007,07,12,07,26,14.60
2007,07,12,07,27,14.60
2007,07,12,07,28,14.60
2007,07,12,07,29,14.70
2007,07,12,07,30,14.70
2007,07,12,07,31,14.70
2007,07,12,07,32,14.70
2007,07,12,07,33,14.70
2007,07,12,07,34,14.70
2007,07,12,07,35,14.70
2007,07,12,07,36,14.70
2007,07,12,07,37,14.70
2007,07,12,07,38,14.70
2007,07,12,07,39,14.70
2007,07,12,07,40,14.70
2007,07,12,07,41,14.70
2007,07,12,07,42,14.70
2007,07,12,07,43,14.80
2007,07,12,07,44,14.80
2007,07,12,07,45,14.90
2007,07,12,07,46,15.00
2007,07,12,07,47,15.00
2007,07,12,07,48,15.00
2007,07,12,07,49,15.00
2007,07,12,07,50,15.00
2007,07,12,07,51,15.00
2007,07,12,07,52,15.00
2007,07,12,07,53,15.00
2007,07,12,07,54,15.00
2007,07,12,07,55,15.00
2007,07,12,07,56,15.00
2007,07,12,07,57,15.00
2007,07,12,07,58,15.00
2007,07,12,07,59,15.00
2007,07,12,08,00,14.90
2007,07,12,08,01,14.90
2007,07,12,08,02,14.90
2007,07,12,08,03,14.90
2007,07,12,08,04,14.90
2007,07,12,08,05,14.90
2007,07,12,08,06,14.90
2007,07,12,08,07,14.90
2007,07,12,08,08,14.90
2007,07,12,08,09,14.90
2007,07,12,08,10,14.90
2007,07,12,08,11,15.00
2007,07,12,08,12,15.00
2007,07,12,08,13,15.00
2007,07,12,08,14,15.00
2007,07,12,08,15,15.00
2007,07,12,08,16,15.00
2007,07,12,08,17,15.00
2007,07,12,08,18,15.00
2007,07,12,08,19,15.00
2007,07,12,08,20,15.00
2007,07,12,08,21,15.00
2007,07,12,08,22,15.00
2007,07,12,08,23,15.00
2007,07,12,08,24,15.00
2007,07,12,08,25,15.10
2007,07,12,08,26,15.20
2007,07,12,08,27,15.20
2007,07,12,08,28,15.30
2007,07,12,08,29,15.30
2007,07,12,08,30,15.40
2007,07,12,08,31,15.40
2007,07,12,08,32,15.30
2007,07,12,08,33,15.30
2007,07,12,08,34,15.30
2007,07,12,08,35,15.30
2007,07,12,08,36,15.30
2007,07,12,08,37,15.40
2007,07,12,08,38,15.40
2007,07,12,08,39,15.40
2007,07,12,08,40,15.50
2007,07,12,08,41,15.50
2007,07,12,08,42,15.60
2007,07,12,08,43,15.60
2007,07,12,08,44,15.60
2007,07,12,08,45,15.70
2007,07,12,08,46,15.70
2007,07,12,08,47,15.70
2007,07,12,08,48,15.70
2007,07,12,08,49,15.80
2007,07,12,08,50,15.80
2007,07,12,08,51,15.80
2007,07,12,08,52,15.80
2007,07,12,08,53,15.80
2007,07,12,08,54,15.80
2007,07,12,08,55,15.80
2007,07,12,08,56,15.70
2007,07,12,08,57,15.70
2007,07,12,08,58,15.70
2007,07,12,08,59,15.70
2007,07,12,09,00,15.80
2007,07,12,09,01,15.80
2007,07,12,09,02,15.90
2007,07,12,09,03,15.90
2007,07,12,09,04,16.00
2007,07,12,09,05,16.10
2007,07,12,09,06,16.10
2007,07,12,09,07,16.20
2007,07,12,09,08,16.20
2007,07,12,09,09,16.20
2007,07,12,09,10,16.20
2007,07,12,09,11,16.20
2007,07,12,09,12,16.20
2007,07,12,09,13,16.20
2007,07,12,09,14,16.30
2007,07,12,09,15,16.30
2007,07,12,09,16,16.30
2007,07,12,09,17,16.30
2007,07,12,09,18,16.40
2007,07,12,09,19,16.40
2007,07,12,09,20,16.50
2007,07,12,09,21,16.50
2007,07,12,09,22,16.40
2007,07,12,09,23,16.40
2007,07,12,09,24,16.40
2007,07,12,09,25,16.30
2007,07,12,09,26,16.30
2007,07,12,09,27,16.30
2007,07,12,09,28,16.30
2007,07,12,09,29,16.30
2007,07,12,09,30,16.30
2007,07,12,09,31,16.30
2007,07,12,09,32,16.40
2007,07,12,09,33,16.40
2007,07,12,09,34,16.40
2007,07,12,09,35,16.40
2007,07,12,09,36,16.30
2007,07,12,09,37,16.30
2007,07,12,09,38,16.30
2007,07,12,09,39,16.40
2007,07,12,09,40,16.40
2007,07,12,09,41,16.40
2007,07,12,09,42,16.40
2007,07,12,09,43,16.40
2007,07,12,09,44,16.40
2007,07,12,09,45,16.40
2007,07,12,09,46,16.40
2007,07,12,09,47,16.40
2007,07,12,09,48,16.40
2007,07,12,09,49,16.50
2007,07,12,09,50,16.50
2007,07,12,09,51,16.50
2007,07,12,09,52,16.60
2007,07,12,09,53,16.60
2007,07,12,09,54,16.70
2007,07,12,09,55,16.70
2007,07,12,09,56,16.70
2007,07,12,09,57,16.70
2007,07,12,09,58,16.70
2007,07,12,09,59,16.70
2007,07,12,10,00,16.70
2007,07,12,10,01,16.70
2007,07,12,10,02,16.70
2007,07,12,10,03,16.80
2007,07,12,10,04,16.80
2007,07,12,10,05,16.80
2007,07,12,10,06,16.80
2007,07,12,10,07,16.70
2007,07,12,10,08,16.70
2007,07,12,10,09,16.70
2007,07,12,10,10,16.70
2007,07,12,10,11,16.70
2007,07,12,10,12,16.70
2007,07,12,10,13,16.80
2007,07,12,10,14,16.70
2007,07,12,10,15,16.70
2007,07,12,10,16,16.60
2007,07,12,10,17,16.60
2007,07,12,10,18,16.60
2007,07,12,10,19,16.60
2007,07,12,10,20,16.60
2007,07,12,10,21,16.60
2007,07,12,10,22,16.70
2007,07,12,10,23,16.70
2007,07,12,10,24,16.80
2007,07,12,10,25,16.80
2007,07,12,10,26,16.90
2007,07,12,10,27,16.80
2007,07,12,10,28,16.80
2007,07,12,10,29,16.80
2007,07,12,10,30,16.80
2007,07,12,10,31,16.80
2007,07,12,10,32,16.80
2007,07,12,10,33,16.80
2007,07,12,10,34,16.90
2007,07,12,10,35,16.90
2007,07,12,10,36,17.00
2007,07,12,10,37,17.10
2007,07,12,10,38,17.10
2007,07,12,10,39,17.10
2007,07,12,10,40,17.10
2007,07,12,10,41,17.10
2007,07,12,10,42,17.20
2007,07,12,10,43,17.20
2007,07,12,10,44,17.30
2007,07,12,10,45,17.40
2007,07,12,10,46,17.60
2007,07,12,10,47,17.70
2007,07,12,10,48,17.80
2007,07,12,10,49,17.90
2007,07,12,10,50,18.00
2007,07,12,10,51,18.00
2007,07,12,10,52,18.10
2007,07,12,10,53,18.10
2007,07,12,10,54,18.20
2007,07,12,10,55,18.20
2007,07,12,10,56,18.40
2007,07,12,10,57,18.50
2007,07,12,10,58,18.60
2007,07,12,10,59,18.70
2007,07,12,11,00,18.70
2007,07,12,11,01,18.80
2007,07,12,11,02,18.80
2007,07,12,11,03,18.90
2007,07,12,11,04,19.00
2007,07,12,11,05,19.00
2007,07,12,11,06,18.90
2007,07,12,11,07,18.90
2007,07,12,11,08,18.80
2007,07,12,11,09,18.90
2007,07,12,11,10,18.90
2007,07,12,11,11,19.00
2007,07,12,11,12,19.00
2007,07,12,11,13,19.10
2007,07,12,11,14,19.10
2007,07,12,11,15,19.10
2007,07,12,11,16,19.10
2007,07,12,11,17,19.10
2007,07,12,11,18,19.10
2007,07,12,11,19,19.20
2007,07,12,11,20,19.20
2007,07,12,11,21,19.20
2007,07,12,11,22,19.10
2007,07,12,11,23,19.10
2007,07,12,11,24,19.10
2007,07,12,11,25,19.10
2007,07,12,11,26,19.10
2007,07,12,11,27,19.10
2007,07,12,11,28,19.10
2007,07,12,11,29,19.10
2007,07,12,11,30,19.00
2007,07,12,11,31,19.00
2007,07,12,11,32,19.00
2007,07,12,11,33,19.10
2007,07,12,11,34,19.10
2007,07,12,11,35,19.20
2007,07,12,11,36,19.20
2007,07,12,11,37,19.20
2007,07,12,11,38,19.30
2007,07,12,11,39,19.30
2007,07,12,11,40,19.50
2007,07,12,11,41,19.60
2007,07,12,11,42,19.70
2007,07,12,11,43,19.80
2007,07,12,11,44,19.90
2007,07,12,11,45,19.90
2007,07,12,11,46,20.00
2007,07,12,11,47,20.10
2007,07,12,11,48,20.10
2007,07,12,11,49,20.10
2007,07,12,11,50,20.10
2007,07,12,11,51,20.10
2007,07,12,11,52,20.20
2007,07,12,11,53,20.20
2007,07,12,11,54,20.20
2007,07,12,11,55,20.20
2007,07,12,11,56,20.10
2007,07,12,11,57,20.10
2007,07,12,11,58,20.10
2007,07,12,11,59,20.10
2007,07,12,12,00,20.10
2007,07,12,12,01,20.00
2007,07,12,12,02,20.00
2007,07,12,12,03,20.10
2007,07,12,12,04,20.10
2007,07,12,12,05,20.20
2007,07,12,12,06,20.30
2007,07,12,12,07,20.30
2007,07,12,12,08,20.40
2007,07,12,12,09,20.40
2007,07,12,12,10,20.40
2007,07,12,12,11,20.40
2007,07,12,12,12,20.40
2007,07,12,12,13,20.50
2007,07,12,12,14,20.50
2007,07,12,12,15,20.50
2007,07,12,12,16,20.60
2007,07,12,12,17,20.70
2007,07,12,12,18,20.80
2007,07,12,12,19,21.00
2007,07,12,12,20,21.10
2007,07,12,12,21,21.20
2007,07,12,12,22,21.30
2007,07,12,12,23,21.40
2007,07,12,12,24,21.40
2007,07,12,12,25,21.40
2007,07,12,12,26,21.30
2007,07,12,12,27,21.20
2007,07,12,12,28,21.10
2007,07,12,12,29,21.10
2007,07,12,12,30,21.00
2007,07,12,12,31,20.90
2007,07,12,12,32,20.70
2007,07,12,12,33,20.60
2007,07,12,12,34,20.50
2007,07,12,12,35,20.40
2007,07,12,12,36,20.40
2007,07,12,12,37,20.40
2007,07,12,12,38,20.40
2007,07,12,12,39,20.40
2007,07,12,12,40,20.40
2007,07,12,12,41,20.40
2007,07,12,12,42,20.50
2007,07,12,12,43,20.60
2007,07,12,12,44,20.70
2007,07,12,12,45,20.80
2007,07,12,12,46,20.80
2007,07,12,12,47,20.80
2007,07,12,12,48,20.80
2007,07,12,12,49,20.90
2007,07,12,12,50,21.00
2007,07,12,12,51,21.20
2007,07,12,12,52,21.40
2007,07,12,12,53,21.50
2007,07,12,12,54,21.60
2007,07,12,12,55,21.70
2007,07,12,12,56,21.70
2007,07,12,12,57,21.70
2007,07,12,12,58,21.70
2007,07,12,12,59,21.70
2007,07,12,13,00,21.70
2007,07,12,13,01,21.70
2007,07,12,13,02,21.70
2007,07,12,13,03,21.70
2007,07,12,13,04,21.70
2007,07,12,13,05,21.60
2007,07,12,13,06,21.50
2007,07,12,13,07,21.40
2007,07,12,13,08,21.40
2007,07,12,13,09,21.40
2007,07,12,13,10,21.30
2007,07,12,13,11,21.10
2007,07,12,13,12,20.80
2007,07,12,13,13,20.60
2007,07,12,13,14,20.40
2007,07,12,13,15,20.40
2007,07,12,13,16,20.30
2007,07,12,13,17,20.20
2007,07,12,13,18,20.20
2007,07,12,13,19,20.10
2007,07,12,13,20,20.00
2007,07,12,13,21,20.00
2007,07,12,13,22,19.90
2007,07,12,13,23,19.90
2007,07,12,13,24,19.90
2007,07,12,13,25,20.00
2007,07,12,13,26,20.00
2007,07,12,13,27,20.10
2007,07,12,13,28,20.10
2007,07,12,13,29,20.20
2007,07,12,13,30,20.30
2007,07,12,13,31,20.30
2007,07,12,13,32,20.30
2007,07,12,13,33,20.30
2007,07,12,13,34,20.30
2007,07,12,13,35,20.30
2007,07,12,13,36,20.30
2007,07,12,13,37,20.30
2007,07,12,13,38,20.20
2007,07,12,13,39,20.10
2007,07,12,13,40,20.00
2007,07,12,13,41,19.90
2007,07,12,13,42,19.80
2007,07,12,13,43,19.80
2007,07,12,13,44,19.80
2007,07,12,13,45,19.80
2007,07,12,13,46,19.90
2007,07,12,13,47,19.90
2007,07,12,13,48,19.90
2007,07,12,13,49,20.00
2007,07,12,13,50,20.00
2007,07,12,13,51,20.10
2007,07,12,13,52,20.20
2007,07,12,13,53,20.20
2007,07,12,13,54,20.30
2007,07,12,13,55,20.40
2007,07,12,13,56,20.40
2007,07,12,13,57,20.50
2007,07,12,13,58,20.50
2007,07,12,13,59,20.60
2007,07,12,14,00,20.50
2007,07,12,14,01,20.50
2007,07,12,14,02,20.50
2007,07,12,14,03,20.50
2007,07,12,14,04,20.50
2007,07,12,14,05,20.50
2007,07,12,14,06,20.60
2007,07,12,14,07,20.60
2007,07,12,14,08,20.60
2007,07,12,14,09,20.60
2007,07,12,14,10,20.60
2007,07,12,14,11,20.60
2007,07,12,14,12,20.70
2007,07,12,14,13,20.70
2007,07,12,14,14,20.60
2007,07,12,14,15,20.60
2007,07,12,14,16,20.60
2007,07,12,14,17,20.60
2007,07,12,14,18,20.50
2007,07,12,14,19,20.50
2007,07,12,14,20,20.40
2007,07,12,14,21,20.40
2007,07,12,14,22,20.30
2007,07,12,14,23,20.30
2007,07,12,14,24,20.20
2007,07,12,14,25,20.20
2007,07,12,14,26,20.20
2007,07,12,14,27,20.20
2007,07,12,14,28,20.10
2007,07,12,14,29,20.10
2007,07,12,14,30,20.00
2007,07,12,14,31,19.90
2007,07,12,14,32,19.80
2007,07,12,14,33,19.60
2007,07,12,14,34,19.50
2007,07,12,14,35,19.30
2007,07,12,14,36,19.10
2007,07,12,14,37,18.90
2007,07,12,14,38,18.80
2007,07,12,14,39,18.70
2007,07,12,14,40,18.70
2007,07,12,14,41,18.70
2007,07,12,14,42,18.60
2007,07,12,14,43,18.60
2007,07,12,14,44,18.70
2007,07,12,14,45,18.70
2007,07,12,14,46,18.70
2007,07,12,14,47,18.80
2007,07,12,14,48,18.90
2007,07,12,14,49,19.00
2007,07,12,14,50,19.10
2007,07,12,14,51,19.20
2007,07,12,14,52,19.30
2007,07,12,14,53,19.40
2007,07,12,14,54,19.50
2007,07,12,14,55,19.60
2007,07,12,14,56,19.70
2007,07,12,14,57,19.70
2007,07,12,14,58,19.90
2007,07,12,14,59,20.00
2007,07,12,15,00,20.00
2007,07,12,15,01,20.10
2007,07,12,15,02,20.20
2007,07,12,15,03,20.30
2007,07,12,15,04,20.40
2007,07,12,15,05,20.40
2007,07,12,15,06,20.40
2007,07,12,15,07,20.50
2007,07,12,15,08,20.60
2007,07,12,15,09,20.60
2007,07,12,15,10,20.70
2007,07,12,15,11,20.80
2007,07,12,15,12,20.90
2007,07,12,15,13,21.00
2007,07,12,15,14,21.10
2007,07,12,15,15,21.20
2007,07,12,15,16,21.30
2007,07,12,15,17,21.40
2007,07,12,15,18,21.50
2007,07,12,15,19,21.60
2007,07,12,15,20,21.60
2007,07,12,15,21,21.60
2007,07,12,15,22,21.60
2007,07,12,15,23,21.60
2007,07,12,15,24,22.00
2007,07,12,15,25,22.20
2007,07,12,15,26,22.30
2007,07,12,15,27,22.40
2007,07,12,15,28,22.40
2007,07,12,15,29,22.40
2007,07,12,15,30,22.50
2007,07,12,15,31,22.60
2007,07,12,15,32,22.60
2007,07,12,15,33,22.80
2007,07,12,15,34,22.90
2007,07,12,15,35,22.90
2007,07,12,15,36,23.10
2007,07,12,15,37,23.20
2007,07,12,15,38,23.30
2007,07,12,15,39,23.40
2007,07,12,15,40,23.40
2007,07,12,15,41,23.50
2007,07,12,15,42,23.50
2007,07,12,15,43,23.40
2007,07,12,15,44,23.40
2007,07,12,15,45,23.30
2007,07,12,15,46,23.40
2007,07,12,15,47,23.40
2007,07,12,15,48,23.40
2007,07,12,15,49,23.40
2007,07,12,15,50,23.40
2007,07,12,15,51,23.40
2007,07,12,15,52,23.50
2007,07,12,15,53,23.60
2007,07,12,15,54,23.70
2007,07,12,15,55,23.80
2007,07,12,15,56,23.80
2007,07,12,15,57,23.80
2007,07,12,15,58,23.80
2007,07,12,15,59,23.80
2007,07,12,16,00,23.80
2007,07,12,16,01,23.80
2007,07,12,16,02,23.80
2007,07,12,16,03,23.80
2007,07,12,16,04,23.90
2007,07,12,16,05,23.90
2007,07,12,16,06,24.00
2007,07,12,16,07,24.10
2007,07,12,16,08,24.20
2007,07,12,16,09,24.20
2007,07,12,16,10,24.30
2007,07,12,16,11,24.30
2007,07,12,16,12,24.30
2007,07,12,16,13,24.40
2007,07,12,16,14,24.40
2007,07,12,16,15,24.30
2007,07,12,16,16,24.30
2007,07,12,16,17,24.30
2007,07,12,16,18,24.30
2007,07,12,16,19,24.30
2007,07,12,16,20,24.30
2007,07,12,16,21,24.40
2007,07,12,16,22,24.40
2007,07,12,16,23,24.40
2007,07,12,16,24,24.40
2007,07,12,16,25,24.50
2007,07,12,16,26,24.60
2007,07,12,16,27,24.60
2007,07,12,16,28,24.70
2007,07,12,16,29,24.70
2007,07,12,16,30,24.70
2007,07,12,16,31,24.80
2007,07,12,16,32,24.90
2007,07,12,16,33,24.80
2007,07,12,16,34,24.80
2007,07,12,16,35,24.80
2007,07,12,16,36,24.70
2007,07,12,16,37,24.70
2007,07,12,16,38,24.70
2007,07,12,16,39,24.70
2007,07,12,16,40,24.70
2007,07,12,16,41,24.70
2007,07,12,16,42,24.70
2007,07,12,16,43,24.70
2007,07,12,16,44,24.70
2007,07,12,16,45,24.70
2007,07,12,16,46,24.60
2007,07,12,16,47,24.50
2007,07,12,16,48,24.30
2007,07,12,16,49,24.30
2007,07,12,16,50,24.20
2007,07,12,16,51,24.20
2007,07,12,16,52,24.10
2007,07,12,16,53,24.00
2007,07,12,16,54,23.90
2007,07,12,16,55,23.90
2007,07,12,16,56,23.90
2007,07,12,16,57,23.70
2007,07,12,16,58,23.60
2007,07,12,16,59,23.50
2007,07,12,17,00,23.50
2007,07,12,17,01,23.50
2007,07,12,17,02,23.50
2007,07,12,17,03,23.50
2007,07,12,17,04,23.50
2007,07,12,17,05,23.50
2007,07,12,17,06,23.50
2007,07,12,17,07,23.60
2007,07,12,17,08,23.50
2007,07,12,17,09,23.60
2007,07,12,17,10,23.60
2007,07,12,17,11,23.60
2007,07,12,17,12,23.60
2007,07,12,17,13,23.70
2007,07,12,17,14,23.80
2007,07,12,17,15,23.90
2007,07,12,17,16,24.10
2007,07,12,17,17,24.20
2007,07,12,17,18,24.30
2007,07,12,17,19,24.50